User: anonymous   Login
Location: Capannuccia
(43.7000°N, 11.3000°E)
Time: 03:16:28
(UTC+00:00)
Language:

STARLINK-2732 - Orbit

View from above orbital plane
View from above orbital plane
View from above satellite
View from above satellite

Ground track
Ground track

The orbit data is extracted from the following two-line orbital elements,

1 48646C 21044J   21293.83227978  .00005416  00000-0  36289-3 0  2936
2 48646  53.0522 108.1330 0001790  72.9771   8.9321 15.06393041    19
Epoch (UTC): 20 October 2021 19:58:28
Eccentricity: 0.0001790
inclination: 53.0522°
perigee height: 546 km
apogee height: 548 km
right ascension of ascending node: 108.1330°
argument of perigee: 72.9771°
revolutions per day: 15.06393041
mean anomaly at epoch: 8.9321°
orbit number at epoch: 1

The dashed part of the orbit path shows where the satellite is in the earth's shadow,  

DLR